Location: Strawberry
(45.6646°N, 111.9596°W)
Time: 14:51:12
(UTC+00:00)

Tiangong - Pass Details

Date: 24 August 2022
Orbit: 377 x 382 km, 41.5° (Epoch: 27 September)

Event Time Altitude Azimuth Distance (km) Brightness Sun altitude
Rises 03:20:09 0° 266° (W) 2,242 2.8 -10.3°
Reaches altitude 10° 03:22:21 10° 255° (WSW) 1,388 1.4 -10.6°
Maximum altitude 03:25:09 30° 192° (SSW) 701 -1.0 -11.0°
Enters shadow 03:26:54 18° 140° (SE) 1,020 -0.6 -11.3°
